Weather Service Report


874 
ASUS42 KTBW 291510
RWRFL 
FLORIDA REGIONAL WEATHER ROUNDUP
NATIONAL WEATHER SERVICE TAMPA BAY RUSKIN FL
1000 AM EST THU JAN 29 2015

NOTE: "FAIR" INDICATES FEW OR NO CLOUDS BELOW 12,000 FEET WITH NO
SIGNIFICANT WEATHER AND/OR OBSTRUCTIONS TO VISIBILITY.


FLZ001>010-012>015-112-114-115-291600-
PANHANDLE FLORIDA
  
CITY           SKY/WX    TMP DP  RH WIND       PRES   REMARKS
PENSACOLA      SUNNY     56  49  77 E5        30.28S                  
PENSACOLA NAS  MOSUNNY   63  53  70 S14       30.28S                  
MILTON NAS     MOSUNNY   52  44  74 SE8       30.30R                  
CRESTVIEW      SUNNY     54  40  59 SE9       30.32S                  
DUKE FIELD     MOSUNNY   55  40  58 SE7       30.30                   
VALPARAISO     SUNNY     55  45  68 SE14      30.31S                  
MARY ESTHER    SUNNY     60  47  64 SE12      30.29S                  
TRI COUNTY     FAIR      50  41  71 SE6       30.34S                  
PANAMA CITY    FAIR      51  42  71 E8        30.33S                  
TYNDALL AFB    SUNNY     52  44  74 E9        30.34F                  
APALACHICOLA   SUNNY     59  45  59 SE9       30.36R                  

STATION/POSITION SKY/WX   TEMP    WIND        PRES    WAVE   SWELL
                          AIR SEA DIR/SP/G            HT/PER HT/PER
                          (F)     (DEG/KT/KT) (MB)    (FT/S) (FT/S)
30.1N   87.6W              63 62  160/ 14/ 17 1024.6F   2/ 4
29.2N   88.2W              65 69  160/ 14/ 16 1025.7F   2/ 4
28.7N   86.0W              63 70  150/ 10/ 14 1027.1R   2/ 4   2/ 7
PANAMA CITY BEAC           53 58  110/ 11/ 14 1026.6F
CAPE SAN BLAS    NOT AVBL
TOWER C                    56     130/ 12/ 13 1027.7R
28.5N   84.5W              59 67  110/ 12/ 16 1026.9F   4/ 5   2/ 9

$$
FLZ011-016>038-118-127-128-134-139-239-291600-
NORTH FLORIDA
  
CITY           SKY/WX    TMP DP  RH WIND       PRES   REMARKS
MARIANNA       SUNNY     50  41  71 SE7       30.34S                  
TALLAHASSEE    MOSUNNY   50  34  54 SE8       30.37R                  
PERRY          SUNNY     49  37  62 E7        30.38R                  
CROSS CITY       N/A     51  38  60 NE5       30.37R                  
LAKE CITY      FAIR      48  37  66 CALM      30.37R                  
GAINESVILLE    SUNNY     52  41  66 N5        30.36R                  
MAYPORT NAS    PTSUNNY   56  45  66 N8        30.36R                  
JACKSONVILLE   PTSUNNY   51  44  77 VRB3      30.36R                  
JAX NAS        PTSUNNY   53  41  63 N8        30.37R                  
JAX CRAIG      MOSUNNY   53  43  68 NW7       30.36R                  
JAX CECIL      SUNNY     48  41  76 N6        30.37R                  
FERNANDINA BEA FAIR      59  46  63 N3        30.34S                  
ST AUGUSTINE   SUNNY     55  47  74 N7        30.36R                  

STATION/POSITION SKY/WX   TEMP    WIND        PRES    WAVE   SWELL
                          AIR SEA DIR/SP/G            HT/PER HT/PER
                          (F)     (DEG/KT/KT) (MB)    (FT/S) (FT/S)
SHELL POINT                46      70/  4/  8   N/A
KEATON BEACH               50      90/  8/  9 1028.6R
CEDAR KEY                  47      50/  5/  6 1028.3R
FERNANDINA                 50 55  340/  6/  7 1027.4R
MAYPORT                    53 57   10/  7/  9 1028.0R
31.4N   80.9W              53 53   40/  6/  8 1028.2R   3/11   3/11
ST AUGUSTINE               54     350/  8/ 10 1028.0R

$$
FLZ040-043>046-052-053-057-058-063-144-291600-
INTERIOR CENTRAL FLORIDA
  
CITY           SKY/WX    TMP DP  RH WIND       PRES   REMARKS
OCALA          SUNNY     52  41  66 CALM      30.35R                  
THE VILLAGES     N/A     54  45  71 NE6       30.25S                  
LEESBURG       SUNNY     55  44  66 N5        30.35R                  
SANFORD        MOSUNNY   56  46  69 N5        30.34R                  
ORLANDO EXEC   MOSUNNY   57  46  66 N5        30.33R                  
ORLANDO INTL   PTSUNNY   58  47  66 N5        30.33S                  
KISSIMMEE      SUNNY     57  48  72 CALM      30.34R                  
WINTER HAVEN   SUNNY     57  45  64 N7        30.35R                  
LAKELAND       SUNNY     55  46  71 N6        30.34S                  
OKEECHOBEE     MOSUNNY   55  48  76 N3        30.32R                  

$$
FLZ041-047-054-059-064-141-147-291600-
EAST CENTRAL FLORIDA
  
CITY           SKY/WX    TMP DP  RH WIND       PRES   REMARKS
ORMOND BEACH   SUNNY     54  43  66 NW6       30.33S                  
DAYTONA BEACH  MOSUNNY   56  46  69 CALM      30.33S                  
DELAND         MOSUNNY  N/A N/A N/A CALM      30.34S                  
NEW SMYRNA BEA MOSUNNY   54  46  76 W6        30.34R                  
JFK SPACE CTR  MOSUNNY   60  50  68 N3        30.32R                  
TITUSVILLE     MOSUNNY   57  48  72 VRB5      30.33R                  
CAPE CANAVERAL MOSUNNY   64  49  58 E8        30.32R                  
PATRICK AFB    MOSUNNY   58  50  76 NW5       30.32R                  
MELBOURNE      MOSUNNY   60  49  66 NW3       30.31S                  
VERO BEACH     MOSUNNY   61  49  64 VRB3      30.32R                  
FT PIERCE      PTSUNNY   61  50  67 NW7       30.31R                  

STATION/POSITION SKY/WX   TEMP    WIND        PRES    WAVE   SWELL
                          AIR SEA DIR/SP/G            HT/PER HT/PER
                          (F)     (DEG/KT/KT) (MB)    (FT/S) (FT/S)
28.5N   80.2W              64 69   80/ 10/ 14 1026.4R
28.9N   78.5W              63 75   90/  8/ 14 1026.6R   6/11   7/11
TRIDENT PIER               58 62  290/  3/  4 1026.1R
28.4N   80.5W                 62                N/A     3/13   2/13
27.6N   80.2W                 67                N/A     5/12   2/12

$$
FLZ050-056-061-142-242-148-248-149-249-151-251-155-255-
160-260-291600-
WEST CENTRAL FLORIDA
  
CITY           SKY/WX    TMP DP  RH WIND       PRES   REMARKS
CRYSTAL RIVER  FAIR      54  41  62 NE5       30.35S                  
INVERNESS      FAIR      54  43  66 NE5       30.35F                  
BROOKSVILLE    SUNNY     55  45  68 NE6       30.35S                  
ZEPHYRHILLS    FAIR      52  45  76 NE5       30.35S                  
CLEARWATER     SUNNY     56  45  66 NE7       30.34R                  
TAMPA INTL     MOSUNNY   57  42  57 NE7       30.34R                  
TAMPA EXEC     SUNNY     57  45  62 NE6       30.35R                  
PLANT CITY       N/A    N/A N/A N/A MISG        N/A                   
MACDILL AFB    SUNNY     57  48  72 E13       30.33R                  
PETER O KNIGHT SUNNY     59  46  63 NE10      30.34R                  
ST PETERSBURG  SUNNY     57  46  66 NE12      30.32R                  
SARASOTA       SUNNY     58  45  62 NE9       30.30S                  
VENICE         FAIR      59  46  63 E13       30.31S                  

STATION/POSITION SKY/WX   TEMP    WIND        PRES    WAVE   SWELL
                          AIR SEA DIR/SP/G            HT/PER HT/PER
                          (F)     (DEG/KT/KT) (MB)    (FT/S) (FT/S)
CEDAR KEY                  47      50/  5/  6 1028.3R
28.5N   84.5W              59 67  110/ 12/ 16 1026.9F   4/ 5   2/ 9
27.3N   84.3W                 72                N/A     5/ 6
CLEARWATER BEACH           55 59   60/  7/  9 1026.8R
MIDDLE TAMPA BAY           53      60/ 10/ 12 1027.0R
VENICE                     59 62   70/ 10/ 14 1025.6R

$$
FLZ066-069-070-075>078-162-262-165-265-291600-
SOUTHWEST FLORIDA AND KEYS
  
CITY           SKY/WX    TMP DP  RH WIND       PRES   REMARKS
PUNTA GORDA    SUNNY     60  47  61 NE12      30.33R                  
FT MYERS       SUNNY     60  47  61 NE8       30.30R                  
SOUTHWEST INTL SUNNY     61  47  59 NE8       30.30R                  
NAPLES         SUNNY     63  48  58 NE15      30.28R                  
MARCO ISLAND   SUNNY     61  46  59 NE13      30.29R                  
IMMOKALEE      SUNNY    N/A N/A N/A NE9       30.31R                  
MARATHON       MOSUNNY   63  56  78 NE13      30.24R                  
KEY WEST NAS   MOSUNNY   66  56  70 NE13      30.25R                  
KEY WEST INTL  SUNNY     65  57  75 NE14      30.25R                  

STATION/POSITION SKY/WX   TEMP    WIND        PRES    WAVE   SWELL
                          AIR SEA DIR/SP/G            HT/PER HT/PER
                          (F)     (DEG/KT/KT) (MB)    (FT/S) (FT/S)
VENICE                     59 62   70/ 10/ 14 1025.6R
NAPLES                     60 72   70/  6/ 11 1026.0R
26.0N   85.6W              65 72  100/ 12/ 16 1025.1R   3/ 5
DRY TORTUGAS               65      60/ 21/ 22 1023.2R
NW FL BAY                  57      40/ 13/ 15 1023.8R
SAND KEY                   64      40/ 17/ 19 1024.0R
SOMBRERO KEY               62      30/ 16/ 18 1024.2R
LONG KEY                   58 63   20/ 11/ 13 1024.4R
MOLASSES REEF              68 73   80/ 15/ 18 1023.8R

$$
FLZ067-068-071>074-168-172>174-291600-
SOUTHEAST FLORIDA 
  
CITY           SKY/WX    TMP DP  RH WIND       PRES   REMARKS
W PALM BEACH   PTSUNNY   70  48  45 E14       30.27R                  
FT LAUDER-EXEC MOSUNNY   68  48  48 E13       30.26R                  
FT LAUDERDALE  PTSUNNY   66  49  54 NE8       30.26R                  
POMPANO BEACH  MOSUNNY   69  50  50 E12G20    30.27R                  
PEMBROKE PINES PTSUNNY   68  48  48 E17       30.28R                  
OPA LOCKA      MOSUNNY   68  49  50 E10G17    30.27R                  
MIAMI          PTSUNNY   67  50  54 N7        30.26R                  
WEST KENDALL   MOSUNNY   69  51  52 N8        30.26R                  
HOMESTEAD      SUNNY     68  53  58 NE14G22   30.26R                  

STATION/POSITION SKY/WX   TEMP    WIND        PRES    WAVE   SWELL
                          AIR SEA DIR/SP/G            HT/PER HT/PER
                          (F)     (DEG/KT/KT) (MB)    (FT/S) (FT/S)
PORT EVERGLADES            67      80/ 11/ 16 1024.6
VIRGINIA KEY               66 65   70/ 13/ 21 1024.9R
LAKE WORTH                 67 73   60/ 12/ 19 1024.7R
SETTLEMENT POINT           64      80/  6/  6 1026.0R

$$


Return to Home page


Western Regional Climate Center, wrcc@dri.edu